Regional Weather Roundup
Issued by NWS Charleston, SC

Current Version | Previous Version | Graphics & Text | Print | Product List | Glossary On
Versions: 1 2 3 4 5 6 7 8 9 10 11 12 13 14 15 16 17 18 19 20 21 22 23 24 25 26 27 28 29 30 31 32 33 34 35 36 37 38 39 40 41 42 43 44 45 46 47 48 49 50
036
ASUS42 KCHS 280913
RWRCHS

REGIONAL WEATHER ROUNDUP
NATIONAL WEATHER SERVICE CHARLESTON SC
500 AM EDT THU JUL 28 2016

NOTE: "FAIR" INDICATES FEW OR NO CLOUDS BELOW 12,000 FEET WITH NO
SIGNIFICANT WEATHER AND/OR OBSTRUCTIONS TO VISIBILITY.

NOT ALL STATIONS ARE QUALITY CONTROLLED. USE DATA WITH CAUTION...
ESPECIALLY DEWPOINT OBSERVATIONS.

SCZ027-030-031-034>040-042>050-281000-
...SOUTHEAST SOUTH CAROLINA...

CITY           SKY/WX    TMP DP  RH WIND       PRES   REMARKS
N CHARLESTON   PTCLDY    82  74  76 W7        29.99R
WATERFRONT PRK   N/A     84  78  82 VRB3      29.96F HX  95
MOUNT PLEASANT FAIR      84  75  74 W3        29.98S HX  92
JOHNS ISLAND   FAIR      82  77  83 W5        29.99S HX  91
PINOPOLIS        N/A     82  79  89 SW8       29.90F HX  93
MONCKS CORNER  FAIR      77  72  83 SW3       29.98S
SUMMERVILLE    NOT AVBL
BEAUFORT MCAS  CLEAR     82  71  69 W8        30.00S
BEAUFORT ARPT  FAIR      82  72  69 W6        30.00S
HILTON HEAD IS CLEAR     82  75  78 W6        30.01S
WALTERBORO     SUNNY     81  73  78 W7        30.00S
ALLENDALE      FAIR      79  72  78 CALM      29.99S

...SOUTHERN MIDLANDS AND PEE DEE...

CITY           SKY/WX    TMP DP  RH WIND       PRES   REMARKS
GEORGETOWN     NOT AVBL
KINGSTREE      FAIR      77  72  83 CALM      29.96F
ORANGEBURG     CLEAR     78  71  79 SW3       29.99S
BARNWELL       NOT AVBL
AIKEN          FAIR      75  70  83 SW5       30.03S
MANNING        FAIR      79  72  78 CALM      29.97S
COLUMBIA       CLEAR     79  70  74 SW3       29.97S
SUMTER         CLEAR     79  70  73 W6        29.94F
FLORENCE       CLEAR     80  72  76 SW7       29.95F
MYRTLE BEACH   PTCLDY    82  72  69 W7        29.98S
N MYRTLE BEACH CLEAR     82  77  84 W6        29.95S HX  90

$$

GAZ063-065-086>088-099>101-113>116-118-119-134>141-150-281000-
...SOUTHEAST GEORGIA...

CITY           SKY/WX    TMP DP  RH WIND       PRES   REMARKS
SAVANNAH ARPT  CLEAR     79  71  76 SW7       30.02S
HUNTER AAF     CLEAR     79  76  90 SW6       30.00R
FORT STEWART   NOT AVBL
STATESBORO     CLEAR     79  73  81 SW5       30.02R
SYLVANIA       NOT AVBL
CLAXTON        FAIR      74  73  97 SW3       30.03R

...CSRA...CENTRAL AND FAR SOUTHEAST GEORGIA...

CITY           SKY/WX    TMP DP  RH WIND       PRES   REMARKS
THOMSON        NOT AVBL
AUGUSTA-BUSH   CLEAR     79  71  76 SW6       29.99S
AUGUSTA-DANIEL CLEAR     82  69  64 W7        30.01S
SWAINSBORO     FAIR      77  70  78 W3        30.03S
VIDALIA        CLEAR     77  70  78 SW3       30.04S
EASTMAN        FAIR      77  73  85 CALM      30.06F
HAZLEHURST     FAIR      79  75  88 CALM      30.03F
ALMA           CLEAR     77  73  87 W3        30.04F
WAYCROSS       CLEAR     80  77  90 W3        30.04S
JESUP          FAIR      73  73 100 CALM      30.03F
BAXLEY         FAIR      77  77 100 CALM      30.03F
BRUNSWICK      CLEAR     79  77  94 SW3       30.04S
SAINT SIMONS   CLEAR     81  75  82 W5        30.03F

$$

SCZ027-028-034-036>038-045-046-048>050-GAZ119-141-281000-
...LAKE AND SUPPLEMENTAL COASTAL OBSERVATIONS...

STATION/POSITION TIME  TEMP    WIND        PRES    WAVE   SWELL
                       AIR SEA DIR/SP/G            HT/PER HT/PER/DIR
                 (UTC) (F)     (DEG/KT/KT) (MB)    (FT/S) (FT/S/D)
WINYAH BAY       NOT AVBL
LAKE MURRAY      0800   85     270/ 11/ 15 1014.6S
ACE BASIN NERRS  NOT AVBL
FORT PULASKI     0800   83 87  220/  5/  7 1016.7F
SAPELO ISLAND    0800   83     230/  9     1017.0S

$$

ANZ835-935-AMZ111-154-330-350-352-354-370-450-454-472-281000-
...C-MAN AND BUOY OBSERVATIONS...

STATION/POSITION TIME  TEMP    WIND        PRES    WAVE   SWELL
                       AIR SEA DIR/SP/G            HT/PER HT/PER/DIR
                 (UTC) (F)     (DEG/KT/KT) (MB)    (FT/S) (FT/S/D)
BUOY 41004       0850   85 86  240/ 21/ 25 1014.4R   4/ 5   2/170/ 8
BUOY 41008       0850   86 86  220/ 16/ 17 1016.2S   3/ 5   2/ 90/ 8
FOLLY BEACH CMAN 0900   83     250/  5/  6 1015.6S
CAPERS NEARSHORE 0808   85 84  260/ 14/ 19 1014.9R
FRIPP NEARSHORE  0808   86 87  250/ 17/ 21 1015.2S


STATION/POSITION TIME  TEMP    WIND        PRES    WAVE   SWELL
                       AIR SEA DIR/SP/G            HT/PER HT/PER/DIR
                 (UTC) (F)     (DEG/KT/KT) (MB)    (FT/S) (FT/S/D)
5E ST. MARYS GA  0901      85                N/A     2/ 4
FRYING PAN BUOY  0800   85 85  240/ 17/ 21 1014.0S
BUOY 41025       0850   84 84  280/  4/  6 1013.7R   3/ 6   3/210/ 6
CAPE LOOKOUT NC  0800   83     240/  9/ 11 1013.5R
BUOY 41002       0850   84 84  250/ 12/ 14 1015.1F   3/ 6   2/130/ 8
BUOY 41010       0820   85 86  210/  8/ 10 1017.4S
ST AUGUSTINE FL  0900   79 84  220/  2/  3 1018.5S


$$




USA.gov is the U.S. government's official web portal to all federal, state and local government web resources and services.